Location: ?????
(38.2579°N, 22.9711°E)
Time: 14:57:12
(UTC+00:00)

Hubble Space Telescope - Pass Details

Date: 13 December 2025
Orbit: 479 x 481 km, 28.5° (Epoch: 17 January)

Event Time Altitude Azimuth Distance (km) Brightness Sun altitude
Rises 15:38:45 0° 235° (SW) 2,526 6.4 -6.1°
Reaches altitude 10° 15:41:32 10° 214° (SW) 1,648 4.3 -6.6°
Maximum altitude 15:44:01 17° 173° (S) 1,285 2.9 -7.1°
Drops below altitude 10° 15:46:30 10° 131° (SE) 1,648 3.0 -7.5°
Enters shadow 15:48:51 - 113° (ESE) 2,377 3.7 -7.9°
